,,,PA_Meas_PMT16A,,PR_Meas_QMR101_102,,RH_Meas_QMH101,,SR_Meas_QMS101,,TA_Meas_QMH101,,GenWind,,GenWind,
date,time,status,PA,status,PR,status,RH,status,SR,status,TA,status,DirAvg,status,SpdAvg,
2011-07-03, 00:00:04,VALID,1000.55,VALID,0,VALID,87.1837,VALID,0,VALID,24.4233,VALID,129,VALID,0.131641,
2011-07-03, 00:01:04,VALID,1000.56,VALID,0,VALID,86.9624,VALID,0,VALID,24.4233,VALID,133,VALID,0.795703,
2011-07-03, 00:02:04,VALID,1000.58,VALID,0,VALID,84.9863,VALID,0,VALID,24.3629,VALID,139,VALID,0.755859,
2011-07-03, 00:03:04,VALID,1000.58,VALID,0,VALID,83.468,VALID,0,VALID,24.4214,VALID,127,VALID,0.991016,
2011-07-03, 00:04:04,VALID,1000.55,VALID,0,VALID,83.1552,VALID,0,VALID,24.5404,VALID,125,VALID,0.655859,
2011-07-03, 00:05:04,VALID,1000.52,VALID,0,VALID,82.7661,VALID,0,VALID,24.5775,VALID,117,VALID,1.3,
2011-07-03, 00:06:04,VALID,1000.54,VALID,0,VALID,82.5525,VALID,0,VALID,24.6575,VALID,126,VALID,0.848047,
2011-07-03, 00:07:04,VALID,1000.49,VALID,0,VALID,82.2931,VALID,0,VALID,24.677,VALID,126,VALID,0.663672,
2011-07-03, 00:08:04,VALID,1000.52,VALID,0,VALID,83.1857,VALID,0,VALID,24.6946,VALID,126,VALID,0.39375,
2011-07-03, 00:09:04,VALID,1000.46,VALID,0,VALID,83.5062,VALID,0,VALID,24.7356,VALID,92,VALID,0.603906,
2011-07-03, 00:10:04,VALID,1000.51,VALID,0,VALID,83.4299,VALID,0,VALID,24.716,VALID,56,VALID,0.208594,
2011-07-03, 00:11:04,VALID,1000.52,VALID,0,VALID,84.6125,VALID,0,VALID,24.716,VALID,56,VALID,0.481641,
2011-07-03, 00:12:04,VALID,1000.51,VALID,0,VALID,85.3983,VALID,0,VALID,24.6751,VALID,11,VALID,0.818359,
2011-07-03, 00:13:04,VALID,1000.53,VALID,0,VALID,86.4131,VALID,0,VALID,24.5971,VALID,11,VALID,0.714063,
2011-07-03, 00:14:04,VALID,1000.49,VALID,0,VALID,86.9243,VALID,0,VALID,24.519,VALID,11,VALID,0.828906,
2011-07-03, 00:15:04,VALID,1000.46,VALID,0,VALID,87.4202,VALID,0,VALID,24.4604,VALID,11,VALID,0.796094,
2011-07-03, 00:16:04,VALID,1000.47,VALID,0,VALID,87.6796,VALID,0,VALID,24.4019,VALID,11,VALID,0.3375,
2011-07-03, 00:17:04,VALID,1000.45,VALID,0,VALID,87.9009,VALID,0,VALID,24.3647,VALID,11,VALID,0.595703,
2011-07-03, 00:18:04,VALID,1000.46,VALID,0,VALID,87.9237,VALID,0,VALID,24.3257,VALID,11,VALID,0.538672,
2011-07-03, 00:19:04,VALID,1000.45,VALID,0,VALID,88.0153,VALID,0,VALID,24.2653,VALID,11,VALID,0.655078,
2011-07-03, 00:20:04,VALID,1000.43,VALID,0,VALID,88.0458,VALID,0,VALID,24.2476,VALID,11,VALID,0.841797,
2011-07-03, 00:21:04,VALID,1000.43,VALID,0,VALID,87.8474,VALID,0,VALID,24.2067,VALID,11,VALID,0.941797,
2011-07-03, 00:22:04,VALID,1000.42,VALID,0,VALID,87.7101,VALID,0,VALID,24.2476,VALID,11,VALID,0.428906,
2011-07-03, 00:23:04,VALID,1000.4,VALID,0,VALID,87.8169,VALID,0,VALID,24.2067,VALID,11,VALID,0.308984,
2011-07-03, 00:24:04,VALID,1000.43,VALID,0,VALID,87.9848,VALID,0,VALID,24.2067,VALID,11,VALID,0.467578,
2011-07-03, 00:25:04,VALID,1000.42,VALID,0,VALID,87.9619,VALID,0,VALID,24.1482,VALID,11,VALID,0.650781,
2011-07-03, 00:26:04,VALID,1000.43,VALID,0,VALID,88.0458,VALID,0,VALID,24.1287,VALID,11,VALID,0.666797,
2011-07-03, 00:27:04,VALID,1000.4,VALID,0,VALID,88.0077,VALID,0,VALID,24.1305,VALID,11,VALID,0.789844,
2011-07-03, 00:28:04,VALID,1000.41,VALID,0,VALID,87.9543,VALID,0,VALID,24.1092,VALID,11,VALID,0.933203,
2011-07-03, 00:29:04,VALID,1000.41,VALID,0,VALID,87.8932,VALID,0,VALID,24.1305,VALID,11,VALID,0.895312,
2011-07-03, 00:30:04,VALID,1000.36,VALID,0,VALID,87.9237,VALID,0,VALID,24.111,VALID,26,VALID,0.906641,
2011-07-03, 00:31:04,VALID,1000.36,VALID,0,VALID,87.733,VALID,0,VALID,24.0915,VALID,26,VALID,1.06562,
2011-07-03, 00:32:04,VALID,1000.32,VALID,0,VALID,87.5575,VALID,0,VALID,24.111,VALID,26,VALID,0.821094,
2011-07-03, 00:33:04,VALID,1000.3,VALID,0,VALID,87.6414,VALID,0,VALID,24.1092,VALID,26,VALID,0.973828,
2011-07-03, 00:34:04,VALID,1000.29,VALID,0,VALID,87.7864,VALID,0,VALID,24.1287,VALID,26,VALID,0.883203,
2011-07-03, 00:35:04,VALID,1000.24,VALID,0,VALID,87.6109,VALID,0.112286,VALID,24.1092,VALID,63,VALID,1.04883,
2011-07-03, 00:36:04,VALID,1000.21,VALID,0,VALID,87.527,VALID,0,VALID,24.1287,VALID,70,VALID,0.931641,
2011-07-03, 00:37:04,VALID,1000.22,VALID,0,VALID,87.6338,VALID,0,VALID,24.1891,VALID,78,VALID,0.978125,
2011-07-03, 00:38:04,VALID,1000.24,VALID,0,VALID,86.848,VALID,0,VALID,24.1891,VALID,90,VALID,0.878906,
2011-07-03, 00:39:04,VALID,1000.25,VALID,0,VALID,86.7793,VALID,0,VALID,24.2476,VALID,103,VALID,0.671875,
2011-07-03, 00:40:04,VALID,1000.25,VALID,0,VALID,86.8327,VALID,0,VALID,24.2653,VALID,103,VALID,0.63125,
2011-07-03, 00:41:04,VALID,1000.24,VALID,0,VALID,86.9472,VALID,0,VALID,24.3062,VALID,103,VALID,0.424219,
2011-07-03, 00:42:04,VALID,1000.23,VALID,0,VALID,86.9929,VALID,0,VALID,24.3062,VALID,104,VALID,0.576563,
2011-07-03, 00:43:04,VALID,1000.24,VALID,0,VALID,86.0469,VALID,0,VALID,24.2866,VALID,133,VALID,1.26602,
2011-07-03, 00:44:04,VALID,1000.2,VALID,0,VALID,83.0103,VALID,0,VALID,24.3452,VALID,138,VALID,1.67344,
2011-07-03, 00:45:04,VALID,1000.18,VALID,0,VALID,81.9803,VALID,0,VALID,24.5209,VALID,142,VALID,1.25742,
2011-07-03, 00:46:04,VALID,1000.18,VALID,0,VALID,81.0113,VALID,0,VALID,24.677,VALID,140,VALID,1.20977,
2011-07-03, 00:47:04,VALID,1000.17,VALID,0,VALID,80.1797,VALID,0,VALID,24.8136,VALID,143,VALID,1.42617,
2011-07-03, 00:48:04,VALID,1000.15,VALID,0,VALID,79.1192,VALID,0,VALID,24.9308,VALID,132,VALID,1.675,
2011-07-03, 00:49:04,VALID,1000.16,VALID,0,VALID,78.5469,VALID,0,VALID,25.0284,VALID,151,VALID,1.76328,
2011-07-03, 00:50:04,VALID,1000.18,VALID,0,VALID,78.2036,VALID,0,VALID,25.126,VALID,152,VALID,1.81836,
2011-07-03, 00:51:04,VALID,1000.19,VALID,0,VALID,77.7458,VALID,0,VALID,25.2431,VALID,159,VALID,1.57461,
2011-07-03, 00:52:04,VALID,1000.15,VALID,0,VALID,76.2504,VALID,0,VALID,25.3388,VALID,172,VALID,1.50234,
2011-07-03, 00:53:04,VALID,1000.13,VALID,0,VALID,76.136,VALID,0,VALID,25.4578,VALID,155,VALID,1.81016,
2011-07-03, 00:54:04,VALID,1000.14,VALID,0,VALID,74.9305,VALID,0,VALID,25.5359,VALID,148,VALID,2.19492,
2011-07-03, 00:55:04,VALID,1000.14,VALID,0,VALID,75.2357,VALID,0,VALID,25.575,VALID,137,VALID,1.9375,
2011-07-03, 00:56:04,VALID,1000.17,VALID,0,VALID,76.1818,VALID,0,VALID,25.5555,VALID,123,VALID,1.71563,
2011-07-03, 00:57:04,VALID,1000.16,VALID,0,VALID,76.9371,VALID,0,VALID,25.4578,VALID,107,VALID,1.26875,
2011-07-03, 00:58:04,VALID,1000.17,VALID,0,VALID,77.5322,VALID,0,VALID,25.3583,VALID,105,VALID,1.35391,
2011-07-03, 00:59:04,VALID,1000.18,VALID,0,VALID,77.372,VALID,0,VALID,25.3017,VALID,106,VALID,1.49141,
2011-07-03, 01:00:05,VALID,1000.19,VALID,0,VALID,78.6614,VALID,0,VALID,25.2431,VALID,93,VALID,1.03984,
2011-07-03, 01:01:05,VALID,1000.17,VALID,0,VALID,79.6456,VALID,0,VALID,25.1845,VALID,102,VALID,1.07773,
2011-07-03, 01:02:05,VALID,1000.16,VALID,0,VALID,79.2183,VALID,0,VALID,25.046,VALID,101,VALID,1.83828,
2011-07-03, 01:03:05,VALID,1000.14,VALID,0,VALID,79.6303,VALID,0,VALID,25.0284,VALID,100,VALID,1.98789,
2011-07-03, 01:04:05,VALID,1000.12,VALID,0,VALID,79.0352,VALID,0.112286,VALID,25.0088,VALID,102,VALID,2.23008,
2011-07-03, 01:05:05,VALID,1000.1,VALID,0,VALID,78.814,VALID,0,VALID,25.0069,VALID,98,VALID,1.81875,
2011-07-03, 01:06:05,VALID,1000.09,VALID,0,VALID,79.0429,VALID,0,VALID,25.0265,VALID,125,VALID,1.56914,
2011-07-03, 01:07:05,VALID,1000.11,VALID,0,VALID,78.1121,VALID,0,VALID,25.0265,VALID,134,VALID,1.81562,
2011-07-03, 01:08:05,VALID,1000.11,VALID,0,VALID,77.9061,VALID,0,VALID,25.0655,VALID,131,VALID,1.74414,
2011-07-03, 01:09:05,VALID,1000.1,VALID,0,VALID,78.524,VALID,0,VALID,25.1064,VALID,120,VALID,1.60586,
2011-07-03, 01:10:05,VALID,1000.07,VALID,0,VALID,77.4559,VALID,0,VALID,25.126,VALID,125,VALID,2.39648,
2011-07-03, 01:11:05,VALID,1000.07,VALID,0,VALID,77.1278,VALID,0,VALID,25.1845,VALID,130,VALID,2.13203,
2011-07-03, 01:12:05,VALID,1000.03,VALID,0,VALID,76.9752,VALID,0,VALID,25.204,VALID,124,VALID,1.8668,
2011-07-03, 01:13:05,VALID,1000.02,VALID,0,VALID,77.0973,VALID,0,VALID,25.204,VALID,143,VALID,1.99063,
2011-07-03, 01:14:05,VALID,1000.02,VALID,0,VALID,77.9518,VALID,0,VALID,25.2236,VALID,134,VALID,1.65352,
2011-07-03, 01:15:05,VALID,1000.04,VALID,0,VALID,78.4706,VALID,0,VALID,25.1845,VALID,133,VALID,1.66992,
2011-07-03, 01:16:05,VALID,1000.01,VALID,0,VALID,78.9437,VALID,0,VALID,25.126,VALID,119,VALID,1.52422,
2011-07-03, 01:17:05,VALID,1000.03,VALID,0,VALID,79.5846,VALID,0,VALID,25.0479,VALID,119,VALID,1.54883,
2011-07-03, 01:18:05,VALID,1000.03,VALID,0,VALID,80.0347,VALID,0,VALID,24.9893,VALID,116,VALID,1.22734,
2011-07-03, 01:19:05,VALID,1000.05,VALID,0,VALID,80.79,VALID,0,VALID,24.9112,VALID,120,VALID,1.51094,
2011-07-03, 01:20:05,VALID,1000.04,VALID,0,VALID,80.6985,VALID,0,VALID,24.8527,VALID,109,VALID,1.77266,
2011-07-03, 01:21:05,VALID,1000.02,VALID,0,VALID,80.6375,VALID,0,VALID,24.8332,VALID,114,VALID,1.77031,
2011-07-03, 01:22:05,VALID,1000.02,VALID,0,VALID,81.1029,VALID,0,VALID,24.8117,VALID,116,VALID,1.60898,
2011-07-03, 01:23:05,VALID,999.975,VALID,0,VALID,81.4996,VALID,0,VALID,24.7941,VALID,96,VALID,1.51602,
2011-07-03, 01:24:05,VALID,999.997,VALID,0,VALID,81.286,VALID,0,VALID,24.7746,VALID,110,VALID,1.8707,
2011-07-03, 01:25:05,VALID,999.985,VALID,0,VALID,81.286,VALID,0,VALID,24.7746,VALID,132,VALID,1.23555,
2011-07-03, 01:26:05,VALID,1000.01,VALID,0,VALID,81.4538,VALID,0,VALID,24.7941,VALID,117,VALID,0.980469,
2011-07-03, 01:27:05,VALID,999.983,VALID,0,VALID,81.8124,VALID,0,VALID,24.7551,VALID,118,VALID,1.26133,
2011-07-03, 01:28:05,VALID,999.911,VALID,0,VALID,82.0489,VALID,0,VALID,24.757,VALID,113,VALID,1.11602,
2011-07-03, 01:29:05,VALID,999.891,VALID,0,VALID,81.9955,VALID,0,VALID,24.6965,VALID,124,VALID,1.07539,
2011-07-03, 01:30:05,VALID,999.852,VALID,0,VALID,82.0489,VALID,0,VALID,24.6965,VALID,131,VALID,1.03594,
2011-07-03, 01:31:05,VALID,999.85,VALID,0,VALID,81.9803,VALID,0,VALID,24.6965,VALID,130,VALID,1.14766,
2011-07-03, 01:32:05,VALID,999.837,VALID,0,VALID,82.2397,VALID,0,VALID,24.6965,VALID,131,VALID,0.853125,
2011-07-03, 01:33:05,VALID,999.829,VALID,0,VALID,82.1634,VALID,0,VALID,24.6556,VALID,140,VALID,1.3332,
2011-07-03, 01:34:05,VALID,999.803,VALID,0,VALID,82.1481,VALID,0,VALID,24.677,VALID,142,VALID,1.19883,
2011-07-03, 01:35:05,VALID,999.854,VALID,0,VALID,82.1481,VALID,0,VALID,24.677,VALID,154,VALID,1.40977,
2011-07-03, 01:36:05,VALID,999.85,VALID,0,VALID,81.7132,VALID,0,VALID,24.716,VALID,141,VALID,1.5582,
2011-07-03, 01:37:05,VALID,999.836,VALID,0,VALID,81.5988,VALID,0,VALID,24.7356,VALID,147,VALID,1.58359,
2011-07-03, 01:38:05,VALID,999.848,VALID,0,VALID,81.3623,VALID,0,VALID,24.7941,VALID,151,VALID,1.53477,
2011-07-03, 01:39:05,VALID,999.85,VALID,0,VALID,81.4462,VALID,0,VALID,24.8136,VALID,132,VALID,1.35547,
2011-07-03, 01:40:05,VALID,999.859,VALID,0,VALID,81.4996,VALID,0,VALID,24.7941,VALID,134,VALID,1.45,
2011-07-03, 01:41:05,VALID,999.865,VALID,0,VALID,81.6674,VALID,0,VALID,24.7941,VALID,134,VALID,1.575,
2011-07-03, 01:42:05,VALID,999.884,VALID,0,VALID,82.0642,VALID,0,VALID,24.7746,VALID,136,VALID,1.27969,
2011-07-03, 01:43:05,VALID,999.873,VALID,0,VALID,82.0337,VALID,0,VALID,24.716,VALID,140,VALID,1.57578,
2011-07-03, 01:44:05,VALID,999.85,VALID,0,VALID,82.1329,VALID,0,VALID,24.6965,VALID,139,VALID,1.50586,
2011-07-03, 01:45:05,VALID,999.861,VALID,0,VALID,82.1176,VALID,0,VALID,24.6946,VALID,132,VALID,1.6832,
2011-07-03, 01:46:05,VALID,999.871,VALID,0,VALID,82.1863,VALID,0,VALID,24.6965,VALID,131,VALID,1.78594,
2011-07-03, 01:47:05,VALID,999.857,VALID,0,VALID,82.2473,VALID,0,VALID,24.677,VALID,132,VALID,1.61758,
2011-07-03, 01:48:05,VALID,999.891,VALID,0,VALID,82.1939,VALID,0,VALID,24.677,VALID,132,VALID,2.0082,
2011-07-03, 01:49:05,VALID,999.834,VALID,0,VALID,82.2778,VALID,0,VALID,24.677,VALID,127,VALID,1.47617,
2011-07-03, 01:50:05,VALID,999.829,VALID,0,VALID,82.3083,VALID,0,VALID,24.6361,VALID,114,VALID,1.37148,
2011-07-03, 01:51:05,VALID,999.805,VALID,0,VALID,81.8277,VALID,0,VALID,24.6575,VALID,103,VALID,1.7832,
2011-07-03, 01:52:05,VALID,999.817,VALID,0,VALID,81.9803,VALID,0,VALID,24.677,VALID,120,VALID,1.55117,
2011-07-03, 01:53:05,VALID,999.775,VALID,0,VALID,82.2702,VALID,0,VALID,24.6575,VALID,123,VALID,1.0668,
2011-07-03, 01:54:05,VALID,999.792,VALID,0,VALID,82.2549,VALID,0,VALID,24.6166,VALID,129,VALID,0.866406,
2011-07-03, 01:55:05,VALID,999.768,VALID,0,VALID,82.4686,VALID,0,VALID,24.5971,VALID,135,VALID,0.54375,
2011-07-03, 01:56:05,VALID,999.755,VALID,0,VALID,82.583,VALID,0,VALID,24.5989,VALID,140,VALID,0.725781,
2011-07-03, 01:57:05,VALID,999.76,VALID,0,VALID,82.6135,VALID,0,VALID,24.5989,VALID,133,VALID,1.0207,
2011-07-03, 01:58:05,VALID,999.755,VALID,0,VALID,82.8348,VALID,0,VALID,24.5775,VALID,129,VALID,0.938281,
2011-07-03, 01:59:05,VALID,999.753,VALID,0,VALID,82.8119,VALID,0,VALID,24.5599,VALID,124,VALID,0.921484,
2011-07-03, 02:00:05,VALID,999.74,VALID,0,VALID,82.522,VALID,0,VALID,24.5385,VALID,112,VALID,0.859766,
2011-07-03, 02:01:05,VALID,999.732,VALID,0,VALID,82.6974,VALID,0,VALID,24.5599,VALID,117,VALID,0.642187,
2011-07-03, 02:02:05,VALID,999.737,VALID,0,VALID,82.583,VALID,0,VALID,24.5385,VALID,122,VALID,0.730859,
2011-07-03, 02:03:05,VALID,999.73,VALID,0,VALID,82.5525,VALID,0,VALID,24.5599,VALID,119,VALID,0.758594,
2011-07-03, 02:04:05,VALID,999.73,VALID,0,VALID,82.6974,VALID,0,VALID,24.5599,VALID,118,VALID,0.664063,
2011-07-03, 02:05:05,VALID,999.736,VALID,0,VALID,82.7738,VALID,0,VALID,24.5385,VALID,108,VALID,0.550781,
2011-07-03, 02:06:05,VALID,999.746,VALID,0,VALID,82.8119,VALID,0,VALID,24.5404,VALID,123,VALID,0.712891,
2011-07-03, 02:07:05,VALID,999.732,VALID,0,VALID,82.7051,VALID,0,VALID,24.4995,VALID,123,VALID,0.718359,
2011-07-03, 02:08:05,VALID,999.75,VALID,0,VALID,82.7051,VALID,0,VALID,24.5209,VALID,123,VALID,0.670703,
2011-07-03, 02:09:05,VALID,999.76,VALID,0,VALID,82.6517,VALID,0,VALID,24.5209,VALID,123,VALID,0.448438,
2011-07-03, 02:10:05,VALID,999.759,VALID,0,VALID,82.3617,VALID,0,VALID,24.5422,VALID,122,VALID,0.544141,
2011-07-03, 02:11:05,VALID,999.75,VALID,0,VALID,82.5601,VALID,0,VALID,24.5404,VALID,122,VALID,0.717969,
2011-07-03, 02:12:05,VALID,999.776,VALID,0,VALID,82.7585,VALID,0,VALID,24.5404,VALID,122,VALID,0.775781,
2011-07-03, 02:13:05,VALID,999.788,VALID,0,VALID,82.8577,VALID,0,VALID,24.5209,VALID,122,VALID,0.563281,
2011-07-03, 02:14:05,VALID,999.771,VALID,0,VALID,83.14,VALID,0,VALID,24.5013,VALID,119,VALID,0.946094,
2011-07-03, 02:15:05,VALID,999.792,VALID,0,VALID,82.8195,VALID,0,VALID,24.4818,VALID,127,VALID,1.48203,
2011-07-03, 02:16:05,VALID,999.789,VALID,0,VALID,82.728,VALID,0,VALID,24.4818,VALID,119,VALID,1.59844,
2011-07-03, 02:17:05,VALID,999.786,VALID,0,VALID,82.377,VALID,0,VALID,24.4818,VALID,117,VALID,1.75781,
2011-07-03, 02:18:05,VALID,999.789,VALID,0,VALID,82.0947,VALID,0,VALID,24.5209,VALID,119,VALID,1.76758,
2011-07-03, 02:19:05,VALID,999.796,VALID,0,VALID,82.0718,VALID,0,VALID,24.5404,VALID,102,VALID,1.17344,
2011-07-03, 02:20:05,VALID,999.724,VALID,0,VALID,81.904,VALID,0,VALID,24.5599,VALID,107,VALID,1.67695,
2011-07-03, 02:21:05,VALID,999.708,VALID,0,VALID,81.6522,VALID,0,VALID,24.5989,VALID,108,VALID,1.76836,
2011-07-03, 02:22:05,VALID,999.669,VALID,0,VALID,81.8963,VALID,0,VALID,24.5794,VALID,113,VALID,1.71953,
2011-07-03, 02:23:05,VALID,999.696,VALID,0,VALID,81.82,VALID,0,VALID,24.5794,VALID,118,VALID,1.84844,
2011-07-03, 02:24:05,VALID,999.666,VALID,0,VALID,81.9803,VALID,0,VALID,24.5794,VALID,126,VALID,1.63281,
2011-07-03, 02:25:05,VALID,999.649,VALID,0,VALID,82.0489,VALID,0,VALID,24.5599,VALID,130,VALID,1.22031,
2011-07-03, 02:26:05,VALID,999.692,VALID,0,VALID,81.8658,VALID,0,VALID,24.5599,VALID,132,VALID,1.42227,
2011-07-03, 02:27:05,VALID,999.702,VALID,0,VALID,81.8887,VALID,0,VALID,24.5599,VALID,127,VALID,1.15078,
2011-07-03, 02:28:05,VALID,999.662,VALID,0,VALID,81.7666,VALID,0,VALID,24.5599,VALID,131,VALID,1.55313,
2011-07-03, 02:29:05,VALID,999.672,VALID,0,VALID,81.8048,VALID,0,VALID,24.5599,VALID,135,VALID,1.47305,
2011-07-03, 02:30:05,VALID,999.636,VALID,0,VALID,81.8277,VALID,0,VALID,24.5599,VALID,134,VALID,1.46016,
2011-07-03, 02:31:05,VALID,999.615,VALID,0,VALID,81.4386,VALID,0,VALID,24.5599,VALID,132,VALID,1.51484,
2011-07-03, 02:32:05,VALID,999.58,VALID,0,VALID,81.3317,VALID,0,VALID,24.558,VALID,124,VALID,1.48438,
2011-07-03, 02:33:05,VALID,999.559,VALID,0,VALID,81.3623,VALID,0,VALID,24.558,VALID,133,VALID,1.29102,
2011-07-03, 02:34:05,VALID,999.586,VALID,0,VALID,81.2402,VALID,0,VALID,24.5599,VALID,132,VALID,1.06484,
2011-07-03, 02:35:05,VALID,999.567,VALID,0,VALID,80.8969,VALID,0,VALID,24.5794,VALID,150,VALID,1.74648,
2011-07-03, 02:36:05,VALID,999.553,VALID,0,VALID,81.0266,VALID,0,VALID,24.5989,VALID,153,VALID,1.27695,
2011-07-03, 02:37:05,VALID,999.503,VALID,0,VALID,79.6456,VALID,0,VALID,24.638,VALID,123,VALID,2.47539,
2011-07-03, 02:38:05,VALID,999.532,VALID,0,VALID,79.348,VALID,0,VALID,24.7356,VALID,131,VALID,2.39844,
2011-07-03, 02:39:05,VALID,999.496,VALID,0,VALID,79.6227,VALID,0,VALID,24.7746,VALID,124,VALID,2.09102,
2011-07-03, 02:40:05,VALID,999.515,VALID,0,VALID,80.1568,VALID,0,VALID,24.7551,VALID,121,VALID,1.72539,
2011-07-03, 02:41:05,VALID,999.502,VALID,0,VALID,80.2865,VALID,0,VALID,24.677,VALID,114,VALID,1.72578,
2011-07-03, 02:42:05,VALID,999.516,VALID,0,VALID,80.9884,VALID,0,VALID,24.6575,VALID,113,VALID,1.02539,
2011-07-03, 02:43:05,VALID,999.492,VALID,0,VALID,81.5301,VALID,0,VALID,24.558,VALID,114,VALID,1.3168,
2011-07-03, 02:44:05,VALID,999.472,VALID,0,VALID,81.965,VALID,0,VALID,24.48,VALID,114,VALID,1.25156,
2011-07-03, 02:45:05,VALID,999.475,VALID,0,VALID,82.1863,VALID,0,VALID,24.4214,VALID,106,VALID,1.31797,
2011-07-03, 02:46:05,VALID,999.439,VALID,0,VALID,81.5301,VALID,0,VALID,24.4019,VALID,118,VALID,2.06719,
2011-07-03, 02:47:05,VALID,999.427,VALID,0,VALID,81.7819,VALID,0,VALID,24.4428,VALID,104,VALID,1.42891,
2011-07-03, 02:48:05,VALID,999.409,VALID,0,VALID,81.698,VALID,0,VALID,24.4428,VALID,85,VALID,1.54258,
2011-07-03, 02:49:05,VALID,999.409,VALID,0,VALID,81.4843,VALID,0,VALID,24.3824,VALID,104,VALID,1.78086,
2011-07-03, 02:50:05,VALID,999.452,VALID,0,VALID,81.5759,VALID,0,VALID,24.3824,VALID,104,VALID,1.85352,
2011-07-03, 02:51:05,VALID,999.452,VALID,0,VALID,81.9345,VALID,0,VALID,24.3629,VALID,113,VALID,1.75234,
2011-07-03, 02:52:05,VALID,999.445,VALID,0,VALID,81.7285,VALID,0,VALID,24.3842,VALID,110,VALID,1.75977,
2011-07-03, 02:53:05,VALID,999.441,VALID,0,VALID,81.8735,VALID,0,VALID,24.3842,VALID,119,VALID,1.62148,
2011-07-03, 02:54:05,VALID,999.422,VALID,0,VALID,81.9116,VALID,0,VALID,24.3647,VALID,112,VALID,1.60273,
2011-07-03, 02:55:05,VALID,999.396,VALID,0,VALID,81.6827,VALID,0,VALID,24.3647,VALID,98,VALID,1.85781,
2011-07-03, 02:56:05,VALID,999.39,VALID,0,VALID,80.935,VALID,0,VALID,24.3842,VALID,103,VALID,2.08516,
2011-07-03, 02:57:05,VALID,999.413,VALID,0,VALID,80.6909,VALID,0,VALID,24.4428,VALID,103,VALID,1.91641,
2011-07-03, 02:58:05,VALID,999.435,VALID,0,VALID,80.9503,VALID,0,VALID,24.4818,VALID,106,VALID,1.78398,
2011-07-03, 02:59:05,VALID,999.427,VALID,0,VALID,80.9732,VALID,0,VALID,24.4818,VALID,98,VALID,1.77461,
2011-07-03, 03:00:05,VALID,999.427,VALID,0,VALID,81.4691,VALID,0,VALID,24.4623,VALID,106,VALID,1.48164,
2011-07-03, 03:01:05,VALID,999.403,VALID,0,VALID,81.286,VALID,0,VALID,24.4037,VALID,119,VALID,1.77109,
2011-07-03, 03:02:05,VALID,999.414,VALID,0,VALID,81.1868,VALID,0,VALID,24.3629,VALID,138,VALID,1.53086,
2011-07-03, 03:03:05,VALID,999.394,VALID,0,VALID,81.0495,VALID,0,VALID,24.3842,VALID,154,VALID,1.13984,
2011-07-03, 03:04:05,VALID,999.36,VALID,0,VALID,80.6222,VALID,0,VALID,24.4019,VALID,136,VALID,1.44453,
2011-07-03, 03:05:05,VALID,999.361,VALID,0,VALID,80.8129,VALID,0,VALID,24.4428,VALID,115,VALID,1.23828,
2011-07-03, 03:06:05,VALID,999.334,VALID,0,VALID,80.874,VALID,0,VALID,24.4428,VALID,115,VALID,1.15273,
2011-07-03, 03:07:05,VALID,999.332,VALID,0,VALID,81.141,VALID,0,VALID,24.3824,VALID,129,VALID,0.805078,
2011-07-03, 03:08:05,VALID,999.318,VALID,0,VALID,81.2402,VALID,0,VALID,24.3452,VALID,129,VALID,0.829297,
2011-07-03, 03:09:05,VALID,999.323,VALID,0,VALID,81.4309,VALID,0,VALID,24.3257,VALID,129,VALID,1.15937,
2011-07-03, 03:10:05,VALID,999.357,VALID,0,VALID,81.5835,VALID,0,VALID,24.3043,VALID,116,VALID,1.20352,
2011-07-03, 03:11:05,VALID,999.34,VALID,0,VALID,81.2402,VALID,0,VALID,24.3062,VALID,118,VALID,1.53359,
2011-07-03, 03:12:05,VALID,999.355,VALID,0,VALID,81.2631,VALID,0,VALID,24.3257,VALID,117,VALID,1.15195,
2011-07-03, 03:13:05,VALID,999.374,VALID,0,VALID,81.408,VALID,0,VALID,24.3452,VALID,115,VALID,1.00937,
2011-07-03, 03:14:05,VALID,999.4,VALID,0,VALID,81.286,VALID,0,VALID,24.3257,VALID,117,VALID,1.02734,
2011-07-03, 03:15:05,VALID,999.41,VALID,0,VALID,81.4462,VALID,0,VALID,24.3257,VALID,119,VALID,0.828125,
2011-07-03, 03:16:05,VALID,999.401,VALID,0,VALID,81.553,VALID,0,VALID,24.3043,VALID,110,VALID,0.726172,
2011-07-03, 03:17:05,VALID,999.445,VALID,0,VALID,81.4157,VALID,0,VALID,24.3452,VALID,138,VALID,1.34414,
2011-07-03, 03:18:05,VALID,999.458,VALID,0,VALID,80.2636,VALID,0,VALID,24.3842,VALID,144,VALID,1.65898,
2011-07-03, 03:19:05,VALID,999.443,VALID,0,VALID,80.4009,VALID,0,VALID,24.4428,VALID,133,VALID,1.11172,
2011-07-03, 03:20:05,VALID,999.45,VALID,0,VALID,80.7672,VALID,0,VALID,24.4233,VALID,129,VALID,0.789063,
2011-07-03, 03:21:05,VALID,999.435,VALID,0,VALID,80.8663,VALID,0,VALID,24.3842,VALID,125,VALID,0.620703,
2011-07-03, 03:22:05,VALID,999.461,VALID,0,VALID,81.1563,VALID,0,VALID,24.3647,VALID,103,VALID,0.771484,
2011-07-03, 03:23:05,VALID,999.48,VALID,0,VALID,81.7514,VALID,0,VALID,24.3452,VALID,102,VALID,0.567578,
2011-07-03, 03:24:05,VALID,999.488,VALID,0,VALID,82.1634,VALID,0,VALID,24.3062,VALID,102,VALID,0.528906,
2011-07-03, 03:25:05,VALID,999.478,VALID,0,VALID,82.3923,VALID,0,VALID,24.2458,VALID,111,VALID,0.573047,
2011-07-03, 03:26:05,VALID,999.467,VALID,0,VALID,82.5754,VALID,0,VALID,24.2086,VALID,111,VALID,0.653516,
2011-07-03, 03:27:05,VALID,999.51,VALID,0,VALID,82.8195,VALID,0,VALID,24.1677,VALID,111,VALID,0.570313,
2011-07-03, 03:28:05,VALID,999.527,VALID,0,VALID,82.6669,VALID,0,VALID,24.1891,VALID,119,VALID,0.673047,
2011-07-03, 03:29:05,VALID,999.521,VALID,0,VALID,82.171,VALID,0,VALID,24.1891,VALID,119,VALID,0.737109,
2011-07-03, 03:30:05,VALID,999.503,VALID,0,VALID,81.8582,VALID,0,VALID,24.1891,VALID,119,VALID,0.633203,
2011-07-03, 03:31:05,VALID,999.496,VALID,0,VALID,81.614,VALID,0,VALID,24.2067,VALID,113,VALID,0.809766,
2011-07-03, 03:32:05,VALID,999.531,VALID,0,VALID,81.4462,VALID,0,VALID,24.2476,VALID,107,VALID,1.29766,
2011-07-03, 03:33:05,VALID,999.522,VALID,0,VALID,80.6603,VALID,0,VALID,24.2866,VALID,113,VALID,1.52891,
2011-07-03, 03:34:05,VALID,999.505,VALID,0,VALID,80.9426,VALID,0,VALID,24.3238,VALID,115,VALID,1.3457,
2011-07-03, 03:35:05,VALID,999.498,VALID,0,VALID,80.935,VALID,0,VALID,24.3043,VALID,129,VALID,0.735937,
2011-07-03, 03:36:05,VALID,999.496,VALID,0,VALID,80.9808,VALID,0,VALID,24.3062,VALID,115,VALID,1.23281,
2011-07-03, 03:37:05,VALID,999.516,VALID,0,VALID,81.3394,VALID,0,VALID,24.2866,VALID,117,VALID,0.836719,
2011-07-03, 03:38:05,VALID,999.516,VALID,0,VALID,81.5301,VALID,0,VALID,24.2263,VALID,122,VALID,0.881641,
2011-07-03, 03:39:05,VALID,999.537,VALID,0,VALID,81.904,VALID,0,VALID,24.2281,VALID,121,VALID,0.703516,
2011-07-03, 03:40:05,VALID,999.529,VALID,0,VALID,82.0489,VALID,0,VALID,24.1696,VALID,131,VALID,0.7375,
2011-07-03, 03:41:05,VALID,999.545,VALID,0,VALID,81.9879,VALID,0,VALID,24.1696,VALID,131,VALID,0.65625,
2011-07-03, 03:42:05,VALID,999.521,VALID,0,VALID,81.7285,VALID,0,VALID,24.1305,VALID,118,VALID,0.803906,
2011-07-03, 03:43:04,VALID,999.534,VALID,0,VALID,81.7285,VALID,0,VALID,24.1287,VALID,138,VALID,0.817969,
2011-07-03, 03:44:04,VALID,999.524,VALID,0,VALID,81.9116,VALID,0,VALID,24.15,VALID,126,VALID,0.489453,
2011-07-03, 03:45:04,VALID,999.508,VALID,0,VALID,82.2626,VALID,0,VALID,24.111,VALID,126,VALID,0.372266,
2011-07-03, 03:46:04,VALID,999.535,VALID,0,VALID,82.0642,VALID,0,VALID,24.0915,VALID,137,VALID,0.860937,